logo
App data

Color Syndrome

Store | Hub | SteamDB
Developer: Thrill Pill Games Publisher: Thrill Pill Games
Genre: Casual, Indie, Strategy
Languages: English
Tags: Casual (23), Strategy (21), Indie (20)
Category: Single-player, Steam Achievements, Full controller support, Steam Trading Cards, Steam Leaderboards
Release date: Aug 1, 2016 (previously in Early Access)
Price: $0.99
Old userscore: 64% Owners: 20,000 .. 50,000
Followers: 294
Peak concurrent players yesterday: 1
Playtime total: 04:54 (average) 05:24 (median)

Steam Spy is still in beta, so expect major bugs.

Owners data:

Access restricted.

This feature is only available to users with special access rights. Sorry.

If you want to proceed, you need to register or log in first and then back Steam Spy on Patreon. Look for Indie or Pro pledge.

Don't forget to use the same email as on Steam Spy!

Audience in 2 weeks:

Access restricted.

This feature is only available to users with special access rights. Sorry.

If you want to proceed, you need to register or log in first and then back Steam Spy on Patreon. Look for Indie or Pro pledge.

Don't forget to use the same email as on Steam Spy!

Peak daily concurrent players:

CCU data courtesy of SteamDB. Used with permission.

Hourly concurrent players:

YouTube:

The views data is based on top 50 videos uploaded last week. Actual number of views might be more than the number shown.

The displayed number of videos uploaded yesterday is limited to 50, so if there were more videos uploaded, the number will still show 50.

If the game has commonly used word as its name (like "FEAR" or "Volume") its number of Youtube views might be wrong.

Games similar to this one:

# Game Release date
Price
Score rank
(Userscore / Metascore)
Owners
Players
Playtime (Median)
1 Night Blights Apr 15, 2016 $4.99N/A (N/A)0 .. 20,0000%00:00 (00:00)
2 Hustle Cat Mar 16, 2016 $19.99N/A (N/A)20,000 .. 50,0000%00:00 (00:00)
3 Carrie's Order Up! Sep 12, 2016 $2.99N/A (N/A)0 .. 20,0000%00:00 (00:00)
4 Luxor Evolved Mar 1, 2012 $9.99N/A (N/A)50,000 .. 100,0000.83%00:01 (00:00)
5 Chip's Challenge 2 May 28, 2015 $4.9994% (96%)20,000 .. 50,0000%00:00 (00:00)
6 Beat Da Beat Mar 10, 2016 $1.9991% (95%)0 .. 20,00025%00:19 (00:09)
7 A Good Snowman Is Hard To Build Feb 25, 2015 $9.99N/A (N/A)0 .. 20,0000%00:00 (00:00)
8 [the Sequence] Mar 30, 2016 $1.99N/A (N/A)0 .. 20,0002.86%00:01 (00:00)
9 12 Labours of Hercules Mar 23, 2015 $0.74N/A (N/A)100,000 .. 200,0000.49%00:30 (00:10)
10 Think To Die 3 Mar 27, 2017 $4.99N/A (N/A)0 .. 20,0000%00:00 (00:00)
11 Swapperoo Dec 18, 2015 $4.99N/A (N/A)0 .. 20,0000%00:00 (00:00)
12 Girls Like Robots Feb 14, 2014 $6.99N/A (N/A)100,000 .. 200,0000%00:00 (00:00)
13 Grapple Mar 9, 2015 $7.99N/A (N/A)20,000 .. 50,0000%00:00 (00:00)
14 Frog Climbers Oct 6, 2016 $6.99N/A (N/A)50,000 .. 100,0000%00:00 (00:00)
15 Tennis in the Face Nov 18, 2015 $4.99N/A (N/A)0 .. 20,0000%00:00 (00:00)
16 SquareCells Dec 7, 2015 $2.9980% (92%)20,000 .. 50,0004.55%01:47 (00:35)
17 Earthtongue Apr 27, 2015 $4.9976% (91%)0 .. 20,0000%00:00 (00:00)
18 Koala Kids Jun 22, 2015 $0.99N/A (N/A)20,000 .. 50,0000%00:00 (00:00)
19 Tribloos 2 Jan 30, 2014 $0.99N/A (N/A)100,000 .. 200,0001.08%10:56 (07:17)
20 The Jackbox Party Pack Nov 26, 2014 $24.9976% (91%)200,000 .. 500,0000%00:00 (00:00)
21 On Rusty Trails Jun 13, 2016 $12.9973% (90%/77%)50,000 .. 100,0000%00:00 (00:00)
22 Dec 28, 2016 $9.99N/A (N/A)0 .. 20,0000%00:00 (00:00)
23 This Starry Midnight We Make Jun 1, 2015 $9.99N/A (N/A)0 .. 20,0000%00:00 (00:00)
24 The Reject Demon: Toko Chapter 0 Prelude May 8, 2015 $4.9969% (89%)0 .. 20,0000%00:00 (00:00)
25 Forgotten, Not Lost - A Kinetic Novel Apr 1, 2016 $1.99N/A (N/A)100,000 .. 200,00017.92%04:23 (04:29)
26 Vampires: Guide Them to Safety! Oct 22, 2014 $4.99N/A (N/A)0 .. 20,0000%00:00 (00:00)
27 12 Labours of Hercules IV: Mother Nature (Platinum Edition) Dec 25, 2015 $2.99N/A (N/A)20,000 .. 50,0000%00:00 (00:00)
28 Darkarta: A Broken Heart's Quest Collector's Edition Mar 8, 2017 $5.99N/A (N/A)20,000 .. 50,0000%00:00 (00:00)
29 Clock Simulator Jul 20, 2016 $0.49N/A (N/A)20,000 .. 50,0004.17%00:10 (00:04)
30 Thrillville: Off the Rails Jul 8, 2009 $9.99N/A (N/A/70%)20,000 .. 50,0000%00:00 (00:00)
31 Bob Was Hungry Aug 19, 2015 $9.9966% (88%)20,000 .. 50,0000%00:00 (00:00)
32 Loot Hound Nov 17, 2015 $4.99N/A (N/A)0 .. 20,0000%00:00 (00:00)
33 Griptape Backbone May 5, 2017 FreeN/A (N/A)0 .. 20,0000%00:00 (00:00)
34 12 Labours of Hercules V: Kids of Hellas (Platinum Edition) Jun 17, 2016 $2.9966% (88%)20,000 .. 50,0000%00:00 (00:00)
35 In Between Aug 21, 2015 $11.9966% (88%/68%)50,000 .. 100,0000%00:00 (00:00)
36 Without Within 2 Nov 9, 2015 $4.9966% (88%)0 .. 20,0000%00:00 (00:00)
37 Recursion Deluxe Feb 12, 2016 $4.99N/A (N/A)0 .. 20,0000%00:00 (00:00)
38 Cursed Sight Aug 3, 2015 $5.9963% (87%)0 .. 20,0000%00:00 (00:00)
39 Oozi: Earth Adventure Dec 5, 2013 $4.9963% (87%/66%)100,000 .. 200,0000%00:00 (00:00)
40 Army of Pixels Oct 29, 2015 $4.99N/A (N/A)0 .. 20,0000%00:00 (00:00)
41 Sophie's Curse Mar 16, 2016 $1.49N/A (N/A)20,000 .. 50,0001.09%00:01 (00:00)
42 Asphyxia Aug 4, 2015 $5.9960% (86%)20,000 .. 50,0000%00:00 (00:00)
43 Alpha Runner Sep 2, 2015 $0.99N/A (N/A)50,000 .. 100,0000.52%00:01 (00:00)
44 Anode Oct 5, 2015 $3.99N/A (N/A)0 .. 20,0000%00:00 (00:00)
45 BAD END Nov 25, 2015 $1.9957% (85%)0 .. 20,0000%00:00 (00:00)
46 Dead Man's Draw Feb 6, 2014 $6.99N/A (N/A)20,000 .. 50,0000%00:00 (00:00)
47 Magma Tsunami Jun 1, 2016 $0.99N/A (N/A)100,000 .. 200,0000%00:00 (00:00)
48 Governor of Poker 2 - Premium Edition Oct 11, 2010 $14.99N/A (N/A)20,000 .. 50,0000%00:00 (00:00)
49 Sentinel 4: Dark Star Aug 13, 2015 $6.99N/A (N/A)0 .. 20,0000%00:00 (00:00)
50 RePete Mar 9, 2016 $1.99N/A (N/A)20,000 .. 50,0000%00:00 (00:00)
51 Cyto Jul 10, 2014 $3.99N/A (N/A)20,000 .. 50,0000%00:00 (00:00)
52 Cute Things Dying Violently Sep 2, 2015 $2.99N/A (N/A)0 .. 20,0000%00:00 (00:00)
53 Gridworld Dec 24, 2015 $0.9952% (83%)0 .. 20,0000%00:00 (00:00)
54 Steam and Metal Feb 9, 2015 $4.99N/A (N/A)0 .. 20,0000%00:00 (00:00)
55 Collisions Jul 28, 2015 $3.99N/A (N/A)20,000 .. 50,0000%00:00 (00:00)
56 Star Sky - Oct 23, 2015 $3.9947% (81%)0 .. 20,0000%00:00 (00:00)
57 Stay Alight Mar 2, 2015 $3.99N/A (N/A)20,000 .. 50,0000%00:00 (00:00)
58 Job the Leprechaun Jul 31, 2015 $0.99N/A (N/A)20,000 .. 50,0000.93%02:43 (00:54)
59 Space Drifters 2D Mar 28, 2016 $0.99N/A (N/A)0 .. 20,0001.27%05:17 (01:45)
60 hackmud Sep 22, 2016 $19.9945% (80%)20,000 .. 50,0000%00:00 (00:00)
61 Archimedes Oct 6, 2016 $2.9945% (80%)20,000 .. 50,0000%00:00 (00:00)
62 Fate Tectonics Sep 9, 2015 $0.99N/A (N/A)0 .. 20,0000%00:00 (00:00)
63 The Last NightMary - A Lenda do Cabea de Cuia Nov 2, 2015 $0.4942% (79%)50,000 .. 100,0000%00:00 (00:00)
64 Egg Returns Home May 5, 2015 $1.99N/A (N/A)20,000 .. 50,0000%00:00 (00:00)
65 GamersGoMakers Aug 8, 2014 $9.99N/A (N/A)0 .. 20,0000%00:00 (00:00)
66 Farm for your Life Jun 16, 2014 $9.9942% (79%)20,000 .. 50,0000%00:00 (00:00)
67 Neon Prism Nov 18, 2016 $0.4941% (78%)50,000 .. 100,0001.02%04:43 (03:05)
68 Paranormal State: Poison Spring Apr 9, 2014 $9.9941% (78%)20,000 .. 50,0000%00:00 (00:00)
69 Particulars Nov 19, 2014 $5.99N/A (N/A/74%)20,000 .. 50,0000%00:00 (00:00)
70 Terraform May 8, 2015 $2.99N/A (N/A)0 .. 20,0000%00:00 (00:00)
71 Rescue Team 5 Nov 18, 2015 $1.99N/A (N/A)20,000 .. 50,0000%00:00 (00:00)
72 The Survey Oct 27, 2016 $4.99N/A (N/A)0 .. 20,0005.56%01:40 (00:33)
73 Optika Aug 26, 2016 $4.9941% (78%)20,000 .. 50,0000%00:00 (00:00)
74 SinaRun Oct 26, 2015 $2.9939% (77%)0 .. 20,0000%00:00 (00:00)
75 Pixel Puzzles 2: Birds Feb 20, 2015 $9.99N/A (N/A)100,000 .. 200,0000.44%00:31 (00:10)
76 The Deletion Jul 30, 2015 $1.99N/A (N/A)20,000 .. 50,0000%00:00 (00:00)
77 Caravanserail Mar 10, 2016 $2.99N/A (N/A)0 .. 20,0000%00:00 (00:00)
78 Where are my Internets? Dec 16, 2016 $2.99N/A (N/A)0 .. 20,0000%00:00 (00:00)
79 Kombine Oct 14, 2016 $0.9935% (75%)20,000 .. 50,0000%00:00 (00:00)
80 Beeftacular Aug 26, 2016 $2.9935% (75%)0 .. 20,0000%00:00 (00:00)
81 Western FPS Mar 13, 2017 $0.99N/A (N/A)100,000 .. 200,0000.45%162:32 (54:10)
82 Totally Unbalanced Jul 29, 2016 $2.99N/A (N/A)0 .. 20,0000%00:00 (00:00)
83 GO AWAY, THERE'S KUMIS OVER THERE! Oct 28, 2016 $0.9931% (73%)50,000 .. 100,0000%00:00 (00:00)
84 Lift It Jan 20, 2017 $4.99N/A (N/A)20,000 .. 50,0000%00:00 (00:00)
85 MOAI 2: Path to Another World Jul 16, 2015 $7.99N/A (N/A)0 .. 20,0000%00:00 (00:00)
86 Turbo Pug 3D Sep 20, 2016 $1.9930% (72%)200,000 .. 500,0000.41%00:57 (00:37)
87 ConflictCraft Dec 8, 2016 $1.49N/A (N/A)20,000 .. 50,0000%00:00 (00:00)
88 Zipple World Jan 19, 2016 $4.99N/A (N/A)0 .. 20,0000%00:00 (00:00)
89 Laserlife Sep 22, 2015 $14.99N/A (N/A)0 .. 20,0000%00:00 (00:00)
90 Racecraft Mar 4, 2016 $19.99N/A (N/A)20,000 .. 50,0000%00:00 (00:00)
91 Axel & Pixel Oct 6, 2010 $4.99N/A (N/A)0 .. 20,0000%00:00 (00:00)
92 Wanda - A Beautiful Apocalypse Jun 3, 2016 $0.99N/A (N/A)50,000 .. 100,0000%00:00 (00:00)
93 Pester Aug 21, 2015 $0.99N/A (N/A)100,000 .. 200,0001.17%03:09 (02:43)
94 Sinister City Oct 20, 2014 $0.99N/A (N/A)100,000 .. 200,0000%00:00 (00:00)
95 Love in the Glen Jun 8, 2016 $5.99N/A (N/A)0 .. 20,0003.7%02:04 (00:42)
96 1931: Scheherazade at the Library of Pergamum Mar 26, 2015 $24.99N/A (N/A)0 .. 20,0000%00:00 (00:00)
97 Marble Duel Nov 12, 2015 $4.99N/A (N/A)100,000 .. 200,0000.97%02:27 (00:49)
98 One Last Chance Apr 7, 2016 $3.99N/A (N/A)0 .. 20,0003.28%01:49 (00:42)
99 Mind Games Mar 4, 2016 $2.9923% (67%)0 .. 20,0003.7%00:01 (00:00)
100 Broken Dreams Feb 19, 2016 $1.9922% (66%)100,000 .. 200,0001.56%04:07 (04:50)
101 Herding Dog Jan 15, 2016 $2.99N/A (N/A)0 .. 20,0000%00:00 (00:00)
102 Fergus The Fly Feb 1, 2017 $0.99N/A (N/A)200,000 .. 500,0001.77%04:05 (03:47)
103 Alter World May 29, 2015 $1.9920% (65%)100,000 .. 200,0000.41%01:49 (00:36)
104 FBI MANIA Jan 31, 2017 $0.99N/A (N/A)50,000 .. 100,0000.57%06:04 (02:01)
105 Highborn Feb 19, 2013 $1.99N/A (N/A)0 .. 20,0000%00:00 (00:00)
106 Winexy Jan 13, 2017 $0.99N/A (N/A)20,000 .. 50,0000%00:00 (00:00)
107 XCavalypse Jun 6, 2016 $2.39N/A (N/A)0 .. 20,0000%00:00 (00:00)
108 Goodnight Butcher Dec 18, 2015 $1.99N/A (N/A)20,000 .. 50,0000%00:00 (00:00)
109 Won't You Be My Laser? Sep 2, 2016 $0.99N/A (N/A)0 .. 20,0000%00:00 (00:00)
110 Bloop Reloaded Feb 6, 2015 $9.99N/A (N/A)100,000 .. 200,0000.71%01:22 (00:49)
111 Football Blitz Jan 4, 2017 $3.99N/A (N/A)20,000 .. 50,0000%00:00 (00:00)
112 Power of Love Jul 21, 2015 $4.99N/A (N/A)20,000 .. 50,0000%00:00 (00:00)
113 One way to exit Mar 12, 2016 $1.99N/A (N/A)200,000 .. 500,0000%00:00 (00:00)
114 Star Chronicles: Delta Quadrant Jul 7, 2015 $0.9913% (58%)200,000 .. 500,0000%00:00 (00:00)
115 Dance Magic Feb 15, 2016 $9.99N/A (N/A)0 .. 20,0000%00:00 (00:00)
116 Way of Gold and Steel Aug 17, 2015 $8.99N/A (N/A)20,000 .. 50,0000%00:00 (00:00)
117 Bunny & Piggy Nov 30, 2016 $0.9912% (57%)50,000 .. 100,00013.95%03:54 (04:15)
118 Backgammon Blitz Nov 12, 2015 $3.99N/A (N/A)0 .. 20,0000%00:00 (00:00)
119 King's Guard TD Jun 8, 2016 $0.9910% (54%)100,000 .. 200,0000%00:00 (00:00)
120 Sky to Fly: Soulless Leviathan Jul 22, 2016 $3.99N/A (N/A)0 .. 20,0000%00:00 (00:00)
121 Reptilian Rebellion Aug 7, 2016 $0.99N/A (N/A)20,000 .. 50,0000%00:00 (00:00)
122 Drizzlepath Mar 12, 2015 $2.99N/A (N/A)0 .. 20,0000%00:00 (00:00)
123 Astro Emporia Feb 2, 2015 $0.99N/A (N/A)0 .. 20,0000%00:00 (00:00)
124 Quantum Rush Champions Dec 4, 2014 $9.998% (50%)20,000 .. 50,0000%00:00 (00:00)
125 Rage Runner May 16, 2014 $4.99N/A (N/A)20,000 .. 50,0000%00:00 (00:00)
126 Melting Hearts: Our Love Will Grow 2 Apr 29, 2016 $4.99N/A (N/A)0 .. 20,0000%00:00 (00:00)
127 Autumn May 14, 2016 $2.99N/A (N/A)50,000 .. 100,0000%00:00 (00:00)
128 Ninja Stealth 2 Jan 30, 2017 $0.496% (46%)0 .. 20,0000%00:00 (00:00)
129 iREC Jan 16, 2017 Free5% (43%)20,000 .. 50,0007.55%03:10 (03:56)
130 Burst Mar 14, 2016 $1.99N/A (N/A)100,000 .. 200,0000%00:00 (00:00)
131 Streets of Chaos Jan 28, 2015 $0.99N/A (N/A)100,000 .. 200,0000%00:00 (00:00)
132 Space Hotel Jan 4, 2017 $1.99N/A (N/A)0 .. 20,0000%00:00 (00:00)
133 European Ship Simulator Nov 4, 2016 $19.99N/A (N/A)50,000 .. 100,0000%00:00 (00:00)
134 Hide and Secret Treasure of the Ages Jun 17, 2016 $0.98N/A (N/A)0 .. 20,0000%00:00 (00:00)
135 Labyrinth Simulator Sep 21, 2015 $4.99N/A (N/A)0 .. 20,0000%00:00 (00:00)
136 Industry Transporters Aug 31, 2015 $9.99N/A (N/A)0 .. 20,0000%00:00 (00:00)
137 Robot vs Birds Zombies Jul 23, 2015 $0.992% (31%)0 .. 20,0000%00:00 (00:00)
138 Hyposphere May 5, 2016 $2.99N/A (N/A)100,000 .. 200,0000%00:00 (00:00)
139 Cyber Team Manager Jan 18, 2016 $4.99N/A (N/A)0 .. 20,0000%00:00 (00:00)

Owners of this game also own:

Access restricted.

This feature is only available to users with special access rights. Sorry.

If you want to proceed, you need to register or log in first and then back Steam Spy on Patreon. Look for Indie or Pro pledge.

Don't forget to use the same email as on Steam Spy!

Playtime distribution:

Access restricted.

This feature is only available to users with special access rights. Sorry.

If you want to proceed, you need to register or log in first and then back Steam Spy on Patreon. Look for Indie or Pro pledge.

Don't forget to use the same email as on Steam Spy!

Playtime (2 weeks):

Access restricted.

This feature is only available to users with special access rights. Sorry.

If you want to proceed, you need to register or log in first and then back Steam Spy on Patreon. Look for Indie or Pro pledge.

Don't forget to use the same email as on Steam Spy!

User reviews:

Login required.

Please register or log in to see this information.